Location: Eaton
(41.3139°N, 82.0207°W)
Time: 08:02:04
(UTC+00:00)

Cosmos 1570 Rocket - Pass Details

Date: 17 June 2021
Orbit: 763 x 788 km, 74.1° (Epoch: 27 July)

Event Time Altitude Azimuth Distance (km) Brightness Sun altitude
Exits shadow 07:45:16 33° 206° (SSW) 1,276 4.6 -18.0°
Maximum altitude 07:47:42 81° 289° (WNW) 779 3.9 -17.8°
Drops below altitude 10° 07:52:57 10° 18° (NNE) 2,306 7.6 -17.2°
Sets 07:55:20 0° 19° (NNE) 3,235 8.7 -17.0°
